Volver al catálogo

STARLINK-31461

ActivoComunicacionesVLEO
NORAD 59370·PAYLOAD·🇺🇸 United States

Lanzado Mar 31, 2024 desde Cape Canaveral Space Force Station

Loading…

Próximos Pases (próximas 24 horas)

TLE

ActualizadoSource: CelesTrak SupGP

Época: Sep 15, 2026, 02:13 UTC

1 59370C 24060Y   26258.09284722 -.00015687  00000+0 -56817-3 0  2589
2 59370  42.9998 259.3720 0001365 266.5080 135.8670 15.27587935    10

Sigue STARLINK-31461 en tiempo real con AllMySat

Download on the App Store